Hourly Weather Bolshie Misniki

Today, 2 August, Monday

Time Temperature Precipitation Wind Pressure Humidity
00:00 +20°C° 0.1 mm 2 mps 738 mmHg 61%
01:00 +19°C° 0.1 mm 2 mps 738 mmHg 64%
02:00 +19°C° 0.1 mm 3 mps 738 mmHg 67%
03:00 +19°C° 0.4 mm 3 mps 737 mmHg 76%
04:00 +18°C° 0.4 mm 3 mps 737 mmHg 85%
05:00 +18°C° 0.4 mm 3 mps 736 mmHg 94%
06:00 +19°C° 0.1 mm 4 mps 736 mmHg 91%
07:00 +20°C° 0.1 mm 4 mps 735 mmHg 89%
08:00 +22°C° 0.1 mm 5 mps 735 mmHg 86%
09:00 +24°C° 0 mm 6 mps 734 mmHg 76%
10:00 +27°C° 0 mm 7 mps 733 mmHg 66%
11:00 +29°C° 0 mm 8 mps 733 mmHg 56%
12:00 +29°C° 0.3 mm 9 mps 733 mmHg 55%
13:00 +28°C° 0.3 mm 9 mps 733 mmHg 54%
14:00 +28°C° 0.3 mm 10 mps 733 mmHg 52%
15:00 +27°C° 0 mm 9 mps 733 mmHg 56%
16:00 +24°C° 0 mm 8 mps 734 mmHg 60%
17:00 +22°C° 0 mm 8 mps 734 mmHg 64%
18:00 +21°C° 0 mm 7 mps 735 mmHg 70%
19:00 +19°C° 0 mm 6 mps 735 mmHg 75%
20:00 +16°C° 0 mm 5 mps 736 mmHg 81%
21:00 +15°C° 0 mm 4 mps 736 mmHg 85%
22:00 +14°C° 0 mm 3 mps 737 mmHg 90%
23:00 +13°C° 0 mm 3 mps 737 mmHg 95%

Tomorrow, 3 August, Tuesday

Time Temperature Precipitation Wind Pressure Humidity
00:00 +13°C° 0 mm 3 mps 737 mmHg 95%
01:00 +13°C° 0 mm 3 mps 738 mmHg 95%
02:00 +13°C° 0 mm 3 mps 738 mmHg 96%
03:00 +13°C° 0 mm 3 mps 738 mmHg 96%
04:00 +13°C° 0 mm 3 mps 738 mmHg 97%
05:00 +12°C° 0 mm 3 mps 738 mmHg 98%
06:00 +14°C° 0 mm 3 mps 739 mmHg 86%
07:00 +17°C° 0 mm 4 mps 739 mmHg 75%
08:00 +18°C° 0 mm 4 mps 740 mmHg 64%
09:00 +20°C° 0 mm 5 mps 740 mmHg 57%
10:00 +21°C° 0 mm 5 mps 740 mmHg 50%
11:00 +22°C° 0 mm 6 mps 740 mmHg 42%
12:00 +22°C° 0 mm 5 mps 740 mmHg 44%
13:00 +22°C° 0 mm 5 mps 740 mmHg 46%
14:00 +21°C° 0 mm 5 mps 740 mmHg 48%
15:00 +21°C° 0 mm 5 mps 740 mmHg 49%
16:00 +22°C° 0 mm 4 mps 740 mmHg 50%
17:00 +22°C° 0 mm 4 mps 740 mmHg 51%
18:00 +20°C° 0 mm 4 mps 741 mmHg 59%
19:00 +18°C° 0 mm 3 mps 741 mmHg 68%
20:00 +16°C° 0 mm 3 mps 741 mmHg 76%
21:00 +15°C° 0 mm 2 mps 741 mmHg 81%
22:00 +15°C° 0 mm 2 mps 742 mmHg 86%
23:00 +14°C° 0 mm 2 mps 742 mmHg 91%

Day after tomorrow, 4 August, Wednesday

Time Temperature Precipitation Wind Pressure Humidity
00:00 +13°C° 0 mm 2 mps 742 mmHg 92%
01:00 +13°C° 0 mm 2 mps 742 mmHg 93%
02:00 +13°C° 0 mm 2 mps 743 mmHg 95%
03:00 +13°C° 0 mm 2 mps 743 mmHg 95%
04:00 +12°C° 0 mm 2 mps 743 mmHg 95%
05:00 +12°C° 0 mm 2 mps 743 mmHg 95%
06:00 +14°C° 0 mm 2 mps 744 mmHg 84%
07:00 +16°C° 0 mm 2 mps 744 mmHg 73%
08:00 +18°C° 0 mm 2 mps 744 mmHg 62%
09:00 +19°C° 0 mm 3 mps 744 mmHg 56%
10:00 +21°C° 0 mm 3 mps 745 mmHg 49%
11:00 +22°C° 0 mm 3 mps 745 mmHg 43%
12:00 +22°C° 0 mm 3 mps 745 mmHg 41%
13:00 +24°C° 0 mm 3 mps 744 mmHg 39%
14:00 +25°C° 0 mm 3 mps 744 mmHg 36%
15:00 +24°C° 0 mm 3 mps 744 mmHg 39%
16:00 +24°C° 0 mm 2 mps 744 mmHg 42%
17:00 +23°C° 0 mm 2 mps 744 mmHg 44%
18:00 +20°C° 0 mm 2 mps 745 mmHg 51%
19:00 +18°C° 0 mm 2 mps 745 mmHg 58%
20:00 +17°C° 0 mm 2 mps 745 mmHg 65%
21:00 +16°C° 0 mm 1 mps 745 mmHg 66%
22:00 +16°C° 0 mm 1 mps 745 mmHg 67%
23:00 +15°C° 0 mm 1 mps 745 mmHg 68%

5 August, Thursday

Time Temperature Precipitation Wind Pressure Humidity
00:00 +15°C° 0 mm 1 mps 745 mmHg 70%
01:00 +15°C° 0 mm 1 mps 745 mmHg 72%
02:00 +14°C° 0 mm 1 mps 745 mmHg 74%
03:00 +14°C° 0 mm 1 mps 745 mmHg 74%
04:00 +14°C° 0 mm 1 mps 745 mmHg 75%
05:00 +14°C° 0 mm 1 mps 745 mmHg 76%
06:00 +16°C° 0 mm 2 mps 746 mmHg 69%
07:00 +18°C° 0 mm 2 mps 746 mmHg 62%
08:00 +20°C° 0 mm 2 mps 746 mmHg 55%
09:00 +21°C° 0 mm 3 mps 745 mmHg 49%
10:00 +24°C° 0 mm 3 mps 745 mmHg 44%
11:00 +25°C° 0 mm 4 mps 745 mmHg 39%
12:00 +26°C° 0 mm 3 mps 745 mmHg 38%
13:00 +26°C° 0 mm 3 mps 745 mmHg 37%
14:00 +26°C° 0 mm 3 mps 744 mmHg 36%
15:00 +26°C° 0 mm 3 mps 744 mmHg 40%
16:00 +25°C° 0 mm 3 mps 744 mmHg 44%
17:00 +24°C° 0 mm 3 mps 744 mmHg 48%
18:00 +23°C° 0 mm 2 mps 744 mmHg 54%
19:00 +20°C° 0 mm 2 mps 744 mmHg 61%
20:00 +19°C° 0 mm 2 mps 744 mmHg 68%
21:00 +18°C° 0 mm 2 mps 744 mmHg 74%
22:00 +17°C° 0 mm 2 mps 743 mmHg 80%
23:00 +16°C° 0 mm 3 mps 743 mmHg 85%

6 August, Friday

Time Temperature Precipitation Wind Pressure Humidity
00:00 +16°C° 0 mm 3 mps 743 mmHg 86%
01:00 +14°C° 0 mm 3 mps 743 mmHg 86%
02:00 +14°C° 0 mm 4 mps 743 mmHg 87%
03:00 +14°C° 0 mm 4 mps 743 mmHg 87%
04:00 +14°C° 0 mm 4 mps 742 mmHg 87%
05:00 +14°C° 0 mm 5 mps 742 mmHg 87%
06:00 +14°C° 0.6 mm 5 mps 742 mmHg 89%
07:00 +14°C° 0.6 mm 5 mps 741 mmHg 91%
08:00 +15°C° 0.6 mm 6 mps 741 mmHg 93%
09:00 +15°C° 1.3 mm 6 mps 741 mmHg 93%
10:00 +15°C° 1.3 mm 7 mps 740 mmHg 92%
11:00 +16°C° 1.3 mm 7 mps 740 mmHg 92%
12:00 +17°C° 0.1 mm 8 mps 740 mmHg 83%
13:00 +20°C° 0.1 mm 8 mps 740 mmHg 75%
14:00 +22°C° 0.1 mm 8 mps 740 mmHg 66%
15:00 +21°C° 0.6 mm 7 mps 739 mmHg 73%
16:00 +21°C° 0.6 mm 6 mps 739 mmHg 79%
17:00 +21°C° 0.6 mm 6 mps 738 mmHg 85%
18:00 +20°C° 1.4 mm 5 mps 738 mmHg 88%
19:00 +19°C° 1.4 mm 5 mps 738 mmHg 92%
20:00 +19°C° 1.4 mm 5 mps 739 mmHg 95%
21:00 +18°C° 1 mm 4 mps 739 mmHg 95%
22:00 +18°C° 1 mm 3 mps 739 mmHg 96%
23:00 +18°C° 1 mm 2 mps 739 mmHg 96%

7 August, Saturday

Time Temperature Precipitation Wind Pressure Humidity
00:00 +17°C° 0 mm 2 mps 740 mmHg 97%
01:00 +16°C° 0 mm 2 mps 740 mmHg 97%
02:00 +15°C° 0 mm 2 mps 740 mmHg 97%
03:00 +15°C° 0 mm 2 mps 740 mmHg 97%
04:00 +15°C° 0 mm 2 mps 741 mmHg 96%
05:00 +14°C° 0 mm 2 mps 741 mmHg 96%
06:00 +16°C° 0 mm 2 mps 741 mmHg 91%
07:00 +17°C° 0 mm 2 mps 742 mmHg 87%
08:00 +18°C° 0 mm 2 mps 742 mmHg 82%
09:00 +20°C° 0 mm 2 mps 742 mmHg 75%
10:00 +21°C° 0 mm 2 mps 742 mmHg 67%
11:00 +24°C° 0 mm 2 mps 743 mmHg 59%
12:00 +24°C° 0 mm 1 mps 743 mmHg 58%
13:00 +24°C° 0 mm 1 mps 743 mmHg 57%
14:00 +24°C° 0 mm 1 mps 743 mmHg 56%
15:00 +24°C° 0 mm 1 mps 743 mmHg 57%
16:00 +24°C° 0 mm 1 mps 743 mmHg 59%
17:00 +24°C° 0 mm 1 mps 744 mmHg 60%
18:00 +23°C° 0 mm 1 mps 744 mmHg 67%
19:00 +21°C° 0 mm 1 mps 744 mmHg 74%
20:00 +19°C° 0 mm 1 mps 744 mmHg 81%
21:00 +19°C° 0 mm 1 mps 744 mmHg 83%
22:00 +18°C° 0 mm 1 mps 745 mmHg 84%
23:00 +16°C° 0 mm 1 mps 745 mmHg 86%
Show more